Location: ??????
(42.0089°N, 44.3281°E)
Time: 19:18:26
(UTC+00:00)

Cosmos 407 Rocket - Pass Details

Date: 24 October 2021
Orbit: 742 x 787 km, 74.0° (Epoch: 02 December)

Event Time Altitude Azimuth Distance (km) Brightness Sun altitude
Rises 16:33:06 0° 339° (NNW) 3,272 7.1 -27.7°
Reaches altitude 10° 16:35:29 10° 340° (NNW) 2,345 6.3 -28.1°
Enters shadow 16:39:53 62° 336° (NNW) 885 3.8 -28.9°
